TimeMDT,TemperatureF,Dew PointF,Humidity,Sea Level PressureIn,VisibilityMPH,Wind Direction,Wind SpeedMPH,Gust SpeedMPH,PrecipitationIn,Events,Conditions,WindDirDegrees,DateUTC
12:15 AM,33.8,31.3,90,30.18,10.0,NE,9.2,-,N/A,,Clear,50,2012-11-03 06:15:00
12:35 AM,32.5,30.7,93,30.18,10.0,NE,6.9,-,N/A,,Clear,40,2012-11-03 06:35:00
12:55 AM,32.9,31.1,93,30.18,10.0,NNE,3.5,-,N/A,,Clear,30,2012-11-03 06:55:00
1:15 AM,32.5,31.5,96,30.18,10.0,NE,4.6,-,N/A,,Clear,40,2012-11-03 07:15:00
1:35 AM,32.4,30.9,94,30.19,10.0,Calm,Calm,-,N/A,,Clear,0,2012-11-03 07:35:00
1:55 AM,33.8,31.1,90,30.19,10.0,NNE,3.5,-,N/A,,Clear,20,2012-11-03 07:55:00
2:15 AM,32.2,30.7,94,30.19,10.0,Calm,Calm,-,N/A,,Clear,0,2012-11-03 08:15:00
2:35 AM,32.5,30.7,93,30.19,10.0,Calm,Calm,-,N/A,,Clear,0,2012-11-03 08:35:00
2:55 AM,38.1,33.8,84,30.19,10.0,Calm,Calm,-,N/A,,Clear,0,2012-11-03 08:55:00
3:15 AM,32.2,30.2,92,30.18,10.0,Calm,Calm,-,N/A,,Clear,0,2012-11-03 09:15:00
3:35 AM,36.1,32.7,87,30.18,10.0,Calm,Calm,-,N/A,,Clear,0,2012-11-03 09:35:00
3:55 AM,38.5,32.9,80,30.18,10.0,SSE,3.5,-,N/A,,Clear,160,2012-11-03 09:55:00
4:15 AM,32.0,29.7,91,30.18,10.0,SSE,3.5,-,N/A,,Clear,150,2012-11-03 10:15:00
4:35 AM,30.2,28.8,94,30.18,10.0,East,4.6,-,N/A,,Clear,100,2012-11-03 10:35:00
4:55 AM,30.9,29.8,96,30.18,10.0,NE,3.5,-,N/A,,Clear,50,2012-11-03 10:55:00
5:15 AM,30.9,30.0,96,30.18,10.0,Calm,Calm,-,N/A,,Clear,0,2012-11-03 11:15:00
5:35 AM,31.5,30.6,96,30.19,10.0,NE,3.5,-,N/A,,Clear,40,2012-11-03 11:35:00
5:55 AM,29.7,28.2,94,30.19,10.0,Calm,Calm,-,N/A,,Clear,0,2012-11-03 11:55:00
6:15 AM,33.6,32.0,94,30.19,10.0,Calm,Calm,-,N/A,,Clear,0,2012-11-03 12:15:00
6:35 AM,33.8,32.0,93,30.19,10.0,Calm,Calm,-,N/A,,Clear,0,2012-11-03 12:35:00
6:55 AM,33.4,32.0,94,30.19,10.0,Calm,Calm,-,N/A,,Clear,0,2012-11-03 12:55:00
7:15 AM,33.1,32.0,96,30.19,10.0,Calm,Calm,-,N/A,,Clear,0,2012-11-03 13:15:00
7:35 AM,32.0,31.1,96,30.19,10.0,SE,3.5,-,N/A,,Clear,140,2012-11-03 13:35:00
7:55 AM,31.5,30.0,94,30.20,10.0,ESE,3.5,-,N/A,,Clear,110,2012-11-03 13:55:00
8:15 AM,31.6,30.4,95,30.20,7.0,ENE,4.6,-,N/A,,Clear,70,2012-11-03 14:15:00
8:35 AM,34.7,32.2,91,30.20,10.0,Calm,Calm,-,N/A,,Clear,0,2012-11-03 14:35:00
8:55 AM,37.2,32.0,81,30.20,10.0,SSW,3.5,-,N/A,,Clear,200,2012-11-03 14:55:00
9:15 AM,39.7,32.7,76,30.20,10.0,SSE,3.5,-,N/A,,Clear,160,2012-11-03 15:15:00
9:35 AM,41.4,32.0,69,30.20,10.0,South,5.8,-,N/A,,Clear,170,2012-11-03 15:35:00
9:55 AM,43.2,32.7,67,30.20,10.0,SSW,4.6,-,N/A,,Clear,210,2012-11-03 15:55:00
10:15 AM,44.4,32.0,62,30.20,10.0,SSW,6.9,-,N/A,,Clear,210,2012-11-03 16:15:00
10:35 AM,45.1,32.2,60,30.20,10.0,WSW,6.9,-,N/A,,Clear,250,2012-11-03 16:35:00
10:55 AM,47.1,33.3,59,30.20,10.0,SW,6.9,-,N/A,,Clear,220,2012-11-03 16:55:00
11:15 AM,49.1,32.4,53,30.19,10.0,SSW,8.1,-,N/A,,Clear,200,2012-11-03 17:15:00
11:35 AM,49.8,32.2,51,30.20,10.0,SSW,5.8,-,N/A,,Clear,200,2012-11-03 17:35:00
11:55 AM,51.1,33.1,50,30.19,10.0,SSW,5.8,-,N/A,,Clear,200,2012-11-03 17:55:00
12:15 PM,51.3,33.3,50,30.17,10.0,SSW,5.8,-,N/A,,Clear,200,2012-11-03 18:15:00
12:35 PM,52.5,33.8,49,30.17,10.0,SW,6.9,-,N/A,,Clear,230,2012-11-03 18:35:00
12:55 PM,53.6,33.6,47,30.16,10.0,SSW,6.9,-,N/A,,Clear,200,2012-11-03 18:55:00
1:15 PM,54.5,34.5,47,30.16,10.0,SW,5.8,-,N/A,,Clear,230,2012-11-03 19:15:00
1:35 PM,54.0,32.9,45,30.15,10.0,SW,5.8,-,N/A,,Clear,230,2012-11-03 19:35:00
1:55 PM,54.3,34.2,47,30.15,10.0,WSW,5.8,-,N/A,,Clear,250,2012-11-03 19:55:00
2:15 PM,54.1,33.8,46,30.13,10.0,WSW,3.5,-,N/A,,Clear,240,2012-11-03 20:15:00
2:35 PM,53.6,34.0,47,30.13,10.0,WSW,5.8,-,N/A,,Clear,250,2012-11-03 20:35:00
2:55 PM,52.7,33.8,49,30.13,10.0,West,6.9,-,N/A,,Clear,270,2012-11-03 20:55:00
3:15 PM,55.6,33.3,43,30.12,10.0,WSW,5.8,-,N/A,,Clear,240,2012-11-03 21:15:00
3:35 PM,55.2,32.2,42,30.12,10.0,WSW,4.6,-,N/A,,Clear,250,2012-11-03 21:35:00
3:55 PM,54.3,33.8,46,30.12,10.0,WSW,3.5,-,N/A,,Clear,240,2012-11-03 21:55:00
4:15 PM,54.0,33.3,46,30.13,10.0,West,3.5,-,N/A,,Clear,280,2012-11-03 22:15:00
4:35 PM,53.1,34.3,49,30.13,10.0,Calm,Calm,-,N/A,,Clear,0,2012-11-03 22:35:00
4:55 PM,54.5,34.3,47,30.12,10.0,WSW,3.5,-,N/A,,Clear,250,2012-11-03 22:55:00
5:15 PM,55.6,32.5,42,30.12,10.0,Calm,Calm,-,N/A,,Clear,0,2012-11-03 23:15:00
5:35 PM,52.9,33.1,47,30.12,10.0,Calm,Calm,-,N/A,,Clear,0,2012-11-03 23:35:00
5:55 PM,50.2,32.9,52,30.13,10.0,West,3.5,-,N/A,,Clear,270,2012-11-03 23:55:00
6:15 PM,46.2,32.0,58,30.13,10.0,West,4.6,-,N/A,,Clear,270,2012-11-04 00:15:00
6:35 PM,45.9,32.7,60,30.13,10.0,West,3.5,-,N/A,,Clear,270,2012-11-04 00:35:00
6:55 PM,46.2,32.2,58,30.14,10.0,NW,5.8,-,N/A,,Clear,310,2012-11-04 00:55:00
7:15 PM,44.1,31.6,62,30.14,10.0,West,5.8,-,N/A,,Clear,280,2012-11-04 01:15:00
7:35 PM,44.2,30.2,58,30.14,10.0,WNW,5.8,-,N/A,,Clear,290,2012-11-04 01:35:00
7:55 PM,44.8,30.2,57,30.15,10.0,NNW,9.2,-,N/A,,Clear,340,2012-11-04 01:55:00
8:15 PM,41.9,32.0,68,30.16,10.0,NNW,11.5,-,N/A,,Clear,340,2012-11-04 02:15:00
8:35 PM,42.8,32.0,66,30.16,10.0,NNW,11.5,-,N/A,,Clear,340,2012-11-04 02:35:00
8:55 PM,42.1,32.0,67,30.16,10.0,NNW,10.4,-,N/A,,Clear,340,2012-11-04 02:55:00
9:15 PM,44.1,32.0,63,30.16,10.0,NNW,10.4,-,N/A,,Clear,340,2012-11-04 03:15:00
9:35 PM,43.0,31.8,65,30.17,10.0,North,9.2,-,N/A,,Clear,350,2012-11-04 03:35:00
9:55 PM,41.4,29.3,62,30.16,10.0,North,4.6,-,N/A,,Clear,350,2012-11-04 03:55:00
10:15 PM,41.5,27.5,57,30.16,10.0,NNW,3.5,-,N/A,,Clear,340,2012-11-04 04:15:00
10:35 PM,39.2,30.7,72,30.17,10.0,SW,4.6,-,N/A,,Clear,230,2012-11-04 04:35:00
10:55 PM,33.3,29.3,85,30.17,10.0,West,6.9,-,N/A,,Clear,280,2012-11-04 04:55:00
11:15 PM,35.6,31.5,85,30.17,10.0,West,9.2,-,N/A,,Clear,280,2012-11-04 05:15:00
11:35 PM,37.4,30.9,77,30.17,10.0,WNW,9.2,-,N/A,,Clear,290,2012-11-04 05:35:00
11:55 PM,35.2,28.0,75,30.16,10.0,West,3.5,-,N/A,,Clear,260,2012-11-04 05:55:00